Regional Weather Roundup
Issued by NWS State College, PA

Home | Current Version | Previous Version | Graphics & Text | Print | Product List | Glossary On
Versions: 1 2 3 4 5 6 7 8 9 10 11 12 13 14 15 16 17 18 19 20 21 22 23 24 25 26 27 28 29 30 31 32 33 34 35 36 37 38 39 40 41 42 43 44 45 46 47 48 49 50
000
ASUS41 KCTP 230003
RWRCTP

REGIONAL WEATHER ROUNDUP
NATIONAL WEATHER SERVICE STATE COLLEGE PA
800 PM EDT WED OCT 22 2014

Note: "fair" indicates few or no clouds below 12,000 feet with no
significant weather and/or obstructions to visibility.

* = STATION THAT DOES NOT REPORT PRECIPITATION /E.G. RAIN...SNOW...ETC/
    THUNDER OR FOG.

PAZ002>004-007>009-013>016-020>023-029>032-230100-
WESTERN PENNSYLVANIA

CITY           SKY/WX    TMP DP  RH WIND       PRES   REMARKS
ERIE           CLOUDY    48  41  76 CALM      30.22S
MEADVILLE      PTCLDY    43  38  82 N5        30.20S
FRANKLIN*      CLOUDY    45  37  76 N5        30.20S
NEW CASTLE       N/A     47  42  82 N10G16    30.22R
BEAVER COUNTY  CLOUDY    46  41  81 N6        30.19S
BUTLER*        CLOUDY    46  37  71 N6        30.20S
PITTSBURGH INT CLOUDY    48  41  76 N9        30.18S
PITTSBURGH     CLOUDY    47  38  71 N8G21     30.16R
INDIANA*       CLOUDY    46  41  81 N3        30.18R
LATROBE        CLOUDY   N/A N/A N/A N12       30.14S
WASHINGTON CO* CLOUDY    46  39  76 N9G17     30.19R
$$

PAZ004>006-010>012-017>019-024>028-033>037-041-042-045-046-049>053-230100-
CENTRAL PENNSYLVANIA

CITY           SKY/WX    TMP DP  RH WIND       PRES   REMARKS
BRADFORD       CLOUDY    41  38  89 N12       30.15R FOG
DUBOIS         CLOUDY    44  40  85 N12       30.13R
CLEARFIELD     CLOUDY    46  40  79 N10       30.12R
JOHNSTOWN      CLOUDY    43  38  82 NW15G21   30.10R
ALTOONA        CLOUDY    48  41  76 N21G30    30.08R
STATE COLLEGE  CLOUDY    46  41  81 N12       30.08R
WILLIAMSPORT   CLOUDY    50  42  74 NW13      30.03F
SELINSGROVE    CLOUDY    51  43  74 N13G22    30.01F
FT INDIANTOWN  CLOUDY    53  48  83 NE8       29.96R
CAPITAL CITY   CLOUDY    54  43  66 N14G25    29.98S
HARRISBURG     CLOUDY    53  43  68 NW17      29.96F
YORK           CLOUDY    53  44  71 N10       29.96S
$$

PAZ038>040-043-044-047-048-054-055-060>062-067>071-230100-
EASTERN PENNSYLVANIA

CITY           SKY/WX    TMP DP  RH WIND       PRES   REMARKS
SCRANTON       CLOUDY    51  45  79 N14G21    29.95F
MOUNT POCONO   LGT RAIN  48  44  86 N15G28    29.90S FOG
ALLENTOWN      LGT RAIN  53  47  79 N15G21    29.89S
QUAKERTOWN*    CLOUDY    50  48  93 N9G17     29.88S
READING        LGT RAIN  54  46  74 N21G28    29.91S
LANCASTER      CLOUDY    53  44  71 N14       29.93S
COATESVILLE    LGT RAIN  50  48  93 N13G25    29.89S
POTTSTOWN      LGT RAIN  52  48  86 N12G18    29.89S
BLUE BELL      CLOUDY    54  50  87 NW6       29.85S
DOYLESTOWN     RAIN      50  49  96 N10G18    29.85S
WILLOW GROVE   NOT AVBL
NORTH PHILA    LGT RAIN  54  48  80 N13       29.85S
PHILADELPHIA   RAIN      54  50  86 N15       29.84F
$$



USA.gov is the U.S. government's official web portal to all federal, state and local government web resources and services.